• In Hungary
  • List of Countries
  • For 7 days
  • Water Temperature
  • Satellite Maps
  • Weather Map
  • News
  • Weather Widgets
  • user-avatar
    Login

    Hourly Weather Kurgashly

    Today, 20 September, Thursday

    Time Temperature Precipitation Wind Pressure Humidity
    00:00 +8°C° 0 mm 2 mps 722 mmHg 97%
    01:00 +8°C° 0 mm 1 mps 722 mmHg 97%
    02:00 +8°C° 0 mm 2 mps 722 mmHg 97%
    03:00 +8°C° 0 mm 2 mps 722 mmHg 97%
    04:00 +8°C° 0 mm 2 mps 722 mmHg 97%
    05:00 +8°C° 0.1 mm 2 mps 722 mmHg 97%
    06:00 +8°C° 0.1 mm 2 mps 723 mmHg 96%
    07:00 +8°C° 0.1 mm 3 mps 723 mmHg 96%
    08:00 +8°C° 0.1 mm 3 mps 723 mmHg 95%
    09:00 +8°C° 0.1 mm 3 mps 723 mmHg 93%
    10:00 +8°C° 0.1 mm 4 mps 723 mmHg 92%
    11:00 +8°C° 0.1 mm 4 mps 723 mmHg 91%
    12:00 +8°C° 0.1 mm 4 mps 724 mmHg 90%
    13:00 +8°C° 0.1 mm 4 mps 724 mmHg 89%
    14:00 +9°C° 0.1 mm 3 mps 724 mmHg 89%
    15:00 +8°C° 0.1 mm 3 mps 724 mmHg 90%
    16:00 +8°C° 0.1 mm 3 mps 724 mmHg 91%
    17:00 +8°C° 0.1 mm 3 mps 725 mmHg 92%
    18:00 +8°C° 0.1 mm 3 mps 725 mmHg 93%
    19:00 +7°C° 0.1 mm 3 mps 725 mmHg 94%
    20:00 +7°C° 0 mm 3 mps 725 mmHg 94%
    21:00 +7°C° 0 mm 3 mps 725 mmHg 95%
    22:00 +7°C° 0 mm 3 mps 725 mmHg 95%
    23:00 +7°C° 0.1 mm 3 mps 725 mmHg 95%

    Tomorrow, 21 September, Friday

    Time Temperature Precipitation Wind Pressure Humidity
    00:00 +7°C° 0.1 mm 3 mps 725 mmHg 95%
    01:00 +7°C° 0.1 mm 3 mps 725 mmHg 95%
    02:00 +7°C° 0.1 mm 3 mps 725 mmHg 95%
    03:00 +7°C° 0.1 mm 3 mps 725 mmHg 95%
    04:00 +7°C° 0.1 mm 3 mps 725 mmHg 95%
    05:00 +7°C° 0.1 mm 3 mps 726 mmHg 95%
    06:00 +7°C° 0.1 mm 3 mps 726 mmHg 95%
    07:00 +8°C° 0.1 mm 3 mps 726 mmHg 94%
    08:00 +8°C° 0 mm 3 mps 727 mmHg 93%
    09:00 +8°C° 0 mm 3 mps 727 mmHg 91%
    10:00 +9°C° 0 mm 3 mps 727 mmHg 89%
    11:00 +9°C° 0 mm 3 mps 728 mmHg 87%
    12:00 +10°C° 0 mm 3 mps 728 mmHg 85%
    13:00 +10°C° 0 mm 4 mps 728 mmHg 83%
    14:00 +10°C° 0 mm 4 mps 728 mmHg 83%
    15:00 +10°C° 0 mm 4 mps 729 mmHg 82%
    16:00 +11°C° 0 mm 4 mps 729 mmHg 82%
    17:00 +10°C° 0 mm 3 mps 729 mmHg 85%
    18:00 +9°C° 0 mm 3 mps 730 mmHg 89%
    19:00 +8°C° 0 mm 2 mps 730 mmHg 93%
    20:00 +8°C° 0 mm 2 mps 731 mmHg 94%
    21:00 +8°C° 0 mm 2 mps 731 mmHg 95%
    22:00 +7°C° 0 mm 2 mps 731 mmHg 96%
    23:00 +8°C° 0 mm 2 mps 731 mmHg 96%

    Day after tomorrow, 22 September, Saturday

    Time Temperature Precipitation Wind Pressure Humidity
    00:00 +8°C° 0 mm 2 mps 732 mmHg 96%
    01:00 +8°C° 0 mm 2 mps 732 mmHg 96%
    02:00 +8°C° 0 mm 2 mps 732 mmHg 96%
    03:00 +8°C° 0 mm 2 mps 733 mmHg 95%
    04:00 +8°C° 0 mm 2 mps 733 mmHg 95%
    05:00 +8°C° 0 mm 2 mps 733 mmHg 95%
    06:00 +8°C° 0 mm 2 mps 734 mmHg 95%
    07:00 +9°C° 0 mm 1 mps 734 mmHg 94%
    08:00 +9°C° 0 mm 2 mps 734 mmHg 89%
    09:00 +10°C° 0 mm 2 mps 735 mmHg 83%
    10:00 +12°C° 0 mm 2 mps 735 mmHg 77%
    11:00 +13°C° 0 mm 2 mps 735 mmHg 70%
    12:00 +13°C° 0 mm 3 mps 734 mmHg 62%
    13:00 +16°C° 0 mm 3 mps 734 mmHg 54%
    14:00 +16°C° 0 mm 3 mps 734 mmHg 57%
    15:00 +16°C° 0 mm 3 mps 734 mmHg 60%
    16:00 +16°C° 0 mm 3 mps 734 mmHg 62%
    17:00 +13°C° 0 mm 3 mps 735 mmHg 73%
    18:00 +12°C° 0 mm 2 mps 735 mmHg 83%
    19:00 +10°C° 0 mm 2 mps 735 mmHg 93%
    20:00 +9°C° 0 mm 2 mps 735 mmHg 95%
    21:00 +10°C° 0 mm 1 mps 735 mmHg 96%
    22:00 +9°C° 0 mm 1 mps 735 mmHg 97%
    23:00 +9°C° 0 mm 1 mps 735 mmHg 97%

    23 September, Sunday

    Time Temperature Precipitation Wind Pressure Humidity
    00:00 +10°C° 0 mm 1 mps 735 mmHg 97%
    01:00 +10°C° 0 mm 1 mps 735 mmHg 97%
    02:00 +9°C° 0 mm 1 mps 735 mmHg 97%
    03:00 +9°C° 0 mm 1 mps 736 mmHg 97%
    04:00 +9°C° 0 mm 1 mps 736 mmHg 97%
    05:00 +10°C° 0 mm 1 mps 736 mmHg 97%
    06:00 +10°C° 0 mm 1 mps 736 mmHg 97%
    07:00 +10°C° 0 mm 1 mps 736 mmHg 97%
    08:00 +12°C° 0 mm 1 mps 736 mmHg 91%
    09:00 +14°C° 0 mm 1 mps 736 mmHg 84%
    10:00 +16°C° 0 mm 1 mps 736 mmHg 78%
    11:00 +17°C° 0 mm 2 mps 736 mmHg 75%
    12:00 +18°C° 0 mm 2 mps 735 mmHg 71%
    13:00 +19°C° 0 mm 2 mps 735 mmHg 68%
    14:00 +19°C° 0 mm 2 mps 735 mmHg 68%
    15:00 +19°C° 0 mm 2 mps 735 mmHg 69%
    16:00 +19°C° 0 mm 2 mps 735 mmHg 69%
    17:00 +18°C° 0 mm 1 mps 735 mmHg 77%
    18:00 +15°C° 0 mm 1 mps 734 mmHg 84%
    19:00 +13°C° 0 mm 1 mps 734 mmHg 92%
    20:00 +13°C° 0 mm 1 mps 734 mmHg 92%
    21:00 +12°C° 0 mm 1 mps 734 mmHg 93%
    22:00 +12°C° 0 mm 1 mps 734 mmHg 94%
    23:00 +12°C° 0 mm 1 mps 734 mmHg 94%

    24 September, Monday

    Time Temperature Precipitation Wind Pressure Humidity
    00:00 +11°C° 0 mm 1 mps 734 mmHg 94%
    01:00 +11°C° 0 mm 1 mps 733 mmHg 95%
    02:00 +11°C° 0 mm 1 mps 733 mmHg 95%
    03:00 +11°C° 0 mm 1 mps 733 mmHg 95%
    04:00 +11°C° 0 mm 1 mps 732 mmHg 94%
    05:00 +11°C° 0 mm 1 mps 732 mmHg 94%
    06:00 +11°C° 0 mm 1 mps 732 mmHg 93%
    07:00 +11°C° 0 mm 1 mps 732 mmHg 92%
    08:00 +14°C° 0 mm 2 mps 732 mmHg 80%
    09:00 +16°C° 0 mm 3 mps 732 mmHg 68%
    10:00 +19°C° 0 mm 3 mps 731 mmHg 55%
    11:00 +19°C° 0 mm 4 mps 731 mmHg 51%
    12:00 +20°C° 0 mm 4 mps 730 mmHg 46%
    13:00 +21°C° 0 mm 4 mps 730 mmHg 42%
    14:00 +21°C° 0 mm 4 mps 729 mmHg 43%
    15:00 +21°C° 0 mm 3 mps 729 mmHg 45%
    16:00 +20°C° 0 mm 3 mps 728 mmHg 47%
    17:00 +18°C° 0 mm 3 mps 728 mmHg 52%
    18:00 +16°C° 0 mm 2 mps 727 mmHg 57%
    19:00 +14°C° 0 mm 2 mps 727 mmHg 63%
    20:00 +14°C° 0 mm 2 mps 726 mmHg 61%
    21:00 +13°C° 0 mm 3 mps 726 mmHg 59%
    22:00 +13°C° 0 mm 3 mps 725 mmHg 57%
    23:00 +14°C° 0.6 mm 2 mps 725 mmHg 66%

    25 September, Tuesday

    Time Temperature Precipitation Wind Pressure Humidity
    00:00 +13°C° 0.6 mm 2 mps 725 mmHg 75%
    01:00 +12°C° 0.6 mm 1 mps 725 mmHg 84%
    02:00 +12°C° 0.3 mm 1 mps 725 mmHg 87%
    03:00 +12°C° 0.3 mm 2 mps 725 mmHg 90%
    04:00 +10°C° 0.3 mm 2 mps 726 mmHg 93%
    05:00 +10°C° 0.1 mm 2 mps 726 mmHg 94%
    06:00 +10°C° 0.1 mm 1 mps 726 mmHg 95%
    07:00 +10°C° 0.1 mm 1 mps 726 mmHg 96%
    08:00 +11°C° 0 mm 1 mps 727 mmHg 90%
    09:00 +12°C° 0 mm 1 mps 727 mmHg 84%
    10:00 +13°C° 0 mm 1 mps 727 mmHg 78%
    11:00 +14°C° 0 mm 1 mps 728 mmHg 73%
    12:00 +14°C° 0 mm 0 mps 728 mmHg 68%
    13:00 +15°C° 0 mm 0 mps 729 mmHg 63%
    14:00 +15°C° 0 mm 0 mps 729 mmHg 61%
    15:00 +16°C° 0 mm 1 mps 729 mmHg 60%
    16:00 +16°C° 0 mm 1 mps 730 mmHg 59%
    17:00 +14°C° 0 mm 1 mps 730 mmHg 67%
    18:00 +11°C° 0 mm 0 mps 730 mmHg 75%
    19:00 +9°C° 0 mm 0 mps 731 mmHg 83%
    20:00 +9°C° 0 mm 0 mps 731 mmHg 85%
    21:00 +8°C° 0 mm 0 mps 731 mmHg 86%
    22:00 +8°C° 0 mm 0 mps 732 mmHg 88%
    23:00 +7°C° 0 mm 0 mps 732 mmHg 89%
    Show more